sat.trackr.live / text

‹ back to catalog

GEESAT-4 04

NORAD 65122 · 2025-170D

PAYLOAD ACTIVE UNKNOWN

§ Identity

Operator
Country
PRC
Launch date
2025-08-08
Launch site
YSLA
Launch vehicle
Mass (kg)
RCS (m²)

External: N2YO · Heavens-Above · Gunter

§ Orbital elements

Epoch: 2026-05-25T05:09:53.150400Z

Period
97.16 min
Inclination
49.9703°
Eccentricity
0.0030265
Mean motion
14.82047045 rev/d
Perigee alt
601.7 km
Apogee alt
644.1 km
Semi-major
7,001.0 km
B*
1.9644e-4
RAAN
234.0062°
Arg perigee
224.8666°
Mean anomaly
134.9825°
Rev number
4,364

§ Raw data

GEESAT-4 041 65122U 25170D   26145.21519850  .00001359  00000+0  19644-3 0  99942 65122  49.9703 234.0062 0030265 224.8666 134.9825 14.82047045 43641

JSON: /api/v1/satellites/65122 · /tle

For live sub-satellite position, see the globe view (requires WebGL).

§ Visibility from observer

Set your observer location to see the next 7 days of passes ≥ 10°. The values pass through the URL so the page stays shareable.

No JS? Fill the form by hand. The geolocation button needs JavaScript.